User: anonymous   Login
Location: Unnamed
(53.9021°N, 27.5568°E)
Time: 00:19:04
(UTC+03:00)
Language:

STARLINK-73 - Orbit

View from above orbital plane
View from above orbital plane
View from above satellite
View from above satellite

Ground track
Ground track

The orbit data is extracted from the following two-line orbital elements,

1 44284C 19029BB  20055.52119947  .00001956  00000-0  11200-3 0   554
2 44284  53.0038   7.0743 0001931  67.6006  41.3627 15.12116475    10
Epoch (UTC): 24 February 2020 12:30:31
Eccentricity: 0.0001931
inclination: 53.0038°
perigee height: 528 km
apogee height: 531 km
right ascension of ascending node: 7.0743°
argument of perigee: 67.6006°
revolutions per day: 15.12116475
mean anomaly at epoch: 41.3627°
orbit number at epoch: 1

The dashed part of the orbit path shows where the satellite is in the earth's shadow,  

DLR